Preview of NWS' New Version of Forecast
This preview is not operational and should not be used for support decisions.

Regional Weather Roundup (RWR)

Issued by Burlington, VT (BTV)

                            
011 
ASUS41 KBTV 212330
RWRBTV
VERMONT REGIONAL WEATHER ROUNDUP
NATIONAL WEATHER SERVICE BURLINGTON VT
700 PM EDT THU JUN 21 2018

NOTE: "FAIR" INDICATES FEW OR NO CLOUDS BELOW 12,000 FEET WITH NO 
SIGNIFICANT WEATHER AND/OR OBSTRUCTIONS TO VISIBILITY.

* THESE REPORTS ARE NOT UNDER NWS QUALITY CONTROL AND/OR DO NOT
  REPORT WEATHER SUCH AS PRECIPITATION AND FOG.

VTZ001>019-220000-
_____VERMONT_____

  
CITY           SKY/WX    TMP DP  RH WIND       PRES   REMARKS
BURLINGTON     FAIR      68  38  33 N8        29.91R                  
MONTPELIER     FAIR      65  39  38 N9        29.93R                  
MORRISVILLE    FAIR      65  41  41 N7        29.92R                  
ST. JOHNSBURY*   N/A     66  38  35 MISG      29.88R                  
LYNDONVILLE*   FAIR      63  39  41 W6        29.93R                  
MIDDLEBURY*    FAIR      66  42  41 N6        29.89R                  
RUTLAND*       FAIR      68  43  40 NW8G17    29.88R                  
SPRINGFIELD    FAIR      74  40  29 VRB7      29.84R                  
HIGHGATE*      FAIR      66  40  39 N7        29.92S                  
NEWPORT*       FAIR      61  40  45 N9        29.94R                  
BENNINGTON     FAIR      75  49  39 N6        29.84R                  
ISLAND POND*     N/A     63 N/A N/A N7          N/A                   
GALLUP MILLS*    N/A     59 N/A N/A MISG        N/A                   
UNION VILLAGE*   N/A     70 N/A N/A MISG        N/A                   
MT. MANSFIELD*   N/A     54 N/A N/A S1          N/A                   

_____LAKE CHAMPLAIN_____

  
CITY           SKY/WX    TMP DP  RH WIND       PRES   REMARKS
BURTON ISLAND*   N/A     68  41  37 MISG        N/A                   
COLCHESTER RF*   N/A     64  41  42 NE16        N/A                   
DIAMOND ISL*     N/A     64  43  45 N18         N/A                   

$$

NYZ007-026>031-035-052-083-087-220000-
_____NORTHERN NEW YORK_____

  
CITY           SKY/WX    TMP DP  RH WIND       PRES   REMARKS
PLATTSBURGH    FAIR      67  40  37 N9        29.91R                  
SARANAC LAKE   FAIR      63  40  42 N8        29.91R                  
MASSENA        FAIR      70  42  36 VRB7      29.93S                  
OGDENSBURG*    FAIR      70  40  33 N5        29.93R                  
POTSDAM*       FAIR      66  39  37 NE6       29.93R                  
STARK FALLS*     N/A     64 N/A N/A N2          N/A                   
WATERTOWN      FAIR      69  42  37 N12       29.91R                  
FT DRUM        SUNNY     68  41  37 NE12      29.93R                  
ALBANY         FAIR      76  49  38 N13       29.83R                  
GLENS FALLS    FAIR      69  45  41 NE14      29.86R                  

$$
NHZ002-005-011-220000-
_____NEW HAMPSHIRE_____

  
CITY           SKY/WX    TMP DP  RH WIND       PRES   REMARKS
LEBANON        FAIR      75  37  25 N10       29.84R                  
KEENE          FAIR      79  39  23 NW7       29.82R                  
MT WASHINGTON  MOSUNNY   43  34  70 NW25G32     N/A                   
PLYMOUTH       FAIR      71  41  33 NW8       29.84R                  
WHITEFIELD     FAIR      68  39  34 N10       29.88R                  

$$

_____REGIONAL QUEBEC LOCATIONS_____

  
CITY           SKY/WX    TMP DP  RH WIND       PRES   REMARKS
MONTREAL       MOSUNNY   68  45  42 S8        29.90R                  
QUEBEC CITY    MOSUNNY   66  41  39 W8        29.88R                  
SHERBROOKE     MOSUNNY   63  41  45 NW7       29.91R                  

_____REGIONAL ONTARIO LOCATIONS_____

  
CITY           SKY/WX    TMP DP  RH WIND       PRES   REMARKS
OTTAWA         MOSUNNY   68  36  30 N8        29.93R                  

______KEY______
VSB  - VISIBILITY IN MILES
WCI  - WIND CHILL INDEX
HX   - HEAT INDEX
$$
NNNN